Time,TemperatureF,DewpointF,PressureIn,WindDirection,WindDirectionDegrees,WindSpeedMPH,WindSpeedGustMPH,Humidity,HourlyPrecipIn,Conditions,Clouds,dailyrainin,SolarRadiationWatts/m^2,SoftwareType,DateUTC
2013-08-03 00:02:00,74.0,55.0,-100.00,NNE,19,6.0,15.0,51,0.00,,,0.14,373.000000,,2013-08-03 00:02:00,
2013-08-03 00:03:00,71.0,54.0,-100.00,NNE,16,5.0,15.0,56,0.00,,,0.14,201.000000,,2013-08-03 00:03:00,
2013-08-03 00:22:00,71.0,54.0,-100.00,NNE,16,5.0,15.0,56,0.00,,,0.14,201.000000,,2013-08-03 00:22:00,
2013-08-03 00:33:00,71.0,54.0,-100.00,NNE,16,5.0,15.0,56,0.00,,,0.14,201.000000,,2013-08-03 00:33:00,
2013-08-03 00:43:00,71.0,54.0,-100.00,NNE,16,5.0,15.0,56,0.00,,,0.14,201.000000,,2013-08-03 00:43:00,
2013-08-03 00:52:00,71.0,54.0,-100.00,NNE,16,5.0,15.0,56,0.00,,,0.14,201.000000,,2013-08-03 00:52:00,
2013-08-03 01:22:00,65.0,53.0,-100.00,NNE,25,2.0,7.0,64,0.00,,,0.14,52.000000,,2013-08-03 01:22:00,
2013-08-03 01:32:00,65.0,53.0,-100.00,NNE,25,2.0,7.0,64,0.00,,,0.14,52.000000,,2013-08-03 01:32:00,
2013-08-03 01:43:00,65.0,53.0,-100.00,NNE,25,2.0,7.0,64,0.00,,,0.14,52.000000,,2013-08-03 01:43:00,
2013-08-03 01:53:00,65.0,53.0,-100.00,NNE,25,2.0,7.0,64,0.00,,,0.14,52.000000,,2013-08-03 01:53:00,
2013-08-03 02:02:00,65.0,53.0,-100.00,NNE,25,2.0,7.0,64,0.00,,,0.14,52.000000,,2013-08-03 02:02:00,
2013-08-03 02:22:00,57.0,53.0,-100.00,North,10,0.0,3.0,86,0.00,,,0.14,3.000000,,2013-08-03 02:22:00,
2013-08-03 02:32:00,57.0,53.0,-100.00,North,10,0.0,3.0,86,0.00,,,0.14,3.000000,,2013-08-03 02:32:00,
2013-08-03 02:43:00,57.0,53.0,-100.00,North,10,0.0,3.0,86,0.00,,,0.14,3.000000,,2013-08-03 02:43:00,
2013-08-03 02:53:00,57.0,53.0,-100.00,North,10,0.0,3.0,86,0.00,,,0.14,3.000000,,2013-08-03 02:53:00,
2013-08-03 03:02:00,57.0,53.0,-100.00,North,10,0.0,3.0,86,0.00,,,0.14,3.000000,,2013-08-03 03:02:00,
2013-08-03 03:32:00,53.0,52.0,-100.00,SSE,151,0.0,0.0,96,0.00,,,0.14,0.000000,,2013-08-03 03:32:00,
2013-08-03 03:43:00,53.0,52.0,-100.00,SSE,151,0.0,0.0,96,0.00,,,0.14,0.000000,,2013-08-03 03:43:00,
2013-08-03 03:53:00,53.0,52.0,-100.00,SSE,151,0.0,0.0,96,0.00,,,0.14,0.000000,,2013-08-03 03:53:00,
2013-08-03 04:02:00,53.0,52.0,-100.00,SSE,151,0.0,0.0,96,0.00,,,0.14,0.000000,,2013-08-03 04:02:00,
2013-08-03 04:33:00,51.0,50.0,-100.00,SE,125,0.0,4.0,98,0.00,,,0.14,0.000000,,2013-08-03 04:33:00,
2013-08-03 04:43:00,51.0,50.0,-100.00,SE,125,0.0,4.0,98,0.00,,,0.14,0.000000,,2013-08-03 04:43:00,
2013-08-03 04:53:00,51.0,50.0,-100.00,SE,125,0.0,4.0,98,0.00,,,0.14,0.000000,,2013-08-03 04:53:00,
2013-08-03 05:02:00,51.0,50.0,-100.00,SE,125,0.0,4.0,98,0.00,,,0.14,0.000000,,2013-08-03 05:02:00,
2013-08-03 05:32:00,50.0,48.0,-100.00,NW,320,1.0,6.0,94,0.00,,,0.14,0.000000,,2013-08-03 05:32:00,
2013-08-03 05:42:00,50.0,48.0,-100.00,NW,320,1.0,6.0,94,0.00,,,0.14,0.000000,,2013-08-03 05:42:00,
2013-08-03 05:52:00,50.0,48.0,-100.00,NW,320,1.0,6.0,94,0.00,,,0.14,0.000000,,2013-08-03 05:52:00,
2013-08-03 06:02:00,50.0,48.0,-100.00,NW,320,1.0,6.0,94,0.00,,,0.14,0.000000,,2013-08-03 06:02:00,
2013-08-03 06:33:00,53.0,51.0,-100.00,NNW,343,2.0,4.0,93,0.00,,,0.14,0.000000,,2013-08-03 06:33:00,
2013-08-03 06:42:00,53.0,51.0,-100.00,NNW,343,2.0,4.0,93,0.00,,,0.14,0.000000,,2013-08-03 06:42:00,
2013-08-03 06:52:00,53.0,51.0,-100.00,NNW,343,2.0,4.0,93,0.00,,,0.14,0.000000,,2013-08-03 06:52:00,
2013-08-03 07:02:00,53.0,51.0,-100.00,NNW,343,2.0,4.0,93,0.00,,,0.14,0.000000,,2013-08-03 07:02:00,
2013-08-03 07:22:00,53.0,50.0,-100.00,North,4,3.0,6.0,89,0.00,,,0.14,0.000000,,2013-08-03 07:22:00,
2013-08-03 07:32:00,53.0,50.0,-100.00,North,4,3.0,6.0,89,0.00,,,0.14,0.000000,,2013-08-03 07:32:00,
2013-08-03 07:43:00,53.0,50.0,-100.00,North,4,3.0,6.0,89,0.00,,,0.14,0.000000,,2013-08-03 07:43:00,
2013-08-03 07:53:00,53.0,50.0,-100.00,North,4,3.0,6.0,89,0.00,,,0.14,0.000000,,2013-08-03 07:53:00,
2013-08-03 08:02:00,53.0,50.0,-100.00,North,4,3.0,6.0,89,0.00,,,0.14,0.000000,,2013-08-03 08:02:00,
2013-08-03 08:22:00,47.0,46.0,-100.00,NNE,12,1.0,4.0,96,0.00,,,0.14,0.000000,,2013-08-03 08:22:00,
2013-08-03 08:32:00,47.0,46.0,-100.00,NNE,12,1.0,4.0,96,0.00,,,0.14,0.000000,,2013-08-03 08:32:00,
2013-08-03 08:43:00,47.0,46.0,-100.00,NNE,12,1.0,4.0,96,0.00,,,0.14,0.000000,,2013-08-03 08:43:00,
2013-08-03 08:52:00,47.0,46.0,-100.00,NNE,12,1.0,4.0,96,0.00,,,0.14,0.000000,,2013-08-03 08:52:00,
2013-08-03 09:02:00,47.0,46.0,-100.00,NNE,12,1.0,4.0,96,0.00,,,0.14,0.000000,,2013-08-03 09:02:00,
2013-08-03 09:22:00,45.0,44.0,-100.00,NNW,345,0.0,0.0,98,0.00,,,0.14,0.000000,,2013-08-03 09:22:00,
2013-08-03 09:32:00,45.0,44.0,-100.00,NNW,345,0.0,0.0,98,0.00,,,0.14,0.000000,,2013-08-03 09:32:00,
2013-08-03 09:43:00,45.0,44.0,-100.00,NNW,345,0.0,0.0,98,0.00,,,0.14,0.000000,,2013-08-03 09:43:00,
2013-08-03 09:53:00,45.0,44.0,-100.00,NNW,345,0.0,0.0,98,0.00,,,0.14,0.000000,,2013-08-03 09:53:00,
2013-08-03 10:02:00,45.0,44.0,-100.00,NNW,345,0.0,0.0,98,0.00,,,0.14,0.000000,,2013-08-03 10:02:00,
2013-08-03 10:33:00,43.0,42.0,-100.00,NNE,30,0.0,2.0,98,0.00,,,0.13,0.000000,,2013-08-03 10:33:00,
2013-08-03 10:43:00,43.0,42.0,-100.00,NNE,30,0.0,2.0,98,0.00,,,0.13,0.000000,,2013-08-03 10:43:00,
2013-08-03 10:53:00,43.0,42.0,-100.00,NNE,30,0.0,2.0,98,0.00,,,0.13,0.000000,,2013-08-03 10:53:00,
2013-08-03 11:02:00,43.0,42.0,-100.00,NNE,30,0.0,2.0,98,0.00,,,0.13,0.000000,,2013-08-03 11:02:00,
2013-08-03 11:03:00,43.0,42.0,-100.00,NW,321,1.0,4.0,98,0.00,,,0.04,11.000000,,2013-08-03 11:03:00,
2013-08-03 11:32:00,43.0,42.0,-100.00,NW,321,1.0,4.0,98,0.00,,,0.04,11.000000,,2013-08-03 11:32:00,
2013-08-03 11:43:00,43.0,42.0,-100.00,NW,321,1.0,4.0,98,0.00,,,0.04,11.000000,,2013-08-03 11:43:00,
2013-08-03 11:53:00,43.0,42.0,-100.00,NW,321,1.0,4.0,98,0.00,,,0.04,11.000000,,2013-08-03 11:53:00,
2013-08-03 12:33:00,54.0,53.0,-100.00,NNW,341,1.0,3.0,98,0.00,,,0.00,114.000000,,2013-08-03 12:33:00,
2013-08-03 12:43:00,54.0,53.0,-100.00,NNW,341,1.0,3.0,98,0.00,,,0.00,114.000000,,2013-08-03 12:43:00,
2013-08-03 12:53:00,54.0,53.0,-100.00,NNW,341,1.0,3.0,98,0.00,,,0.00,114.000000,,2013-08-03 12:53:00,
2013-08-03 13:02:00,54.0,53.0,-100.00,NNW,341,1.0,3.0,98,0.00,,,0.00,114.000000,,2013-08-03 13:02:00,
2013-08-03 13:33:00,58.0,54.0,-100.00,NW,310,3.0,7.0,86,0.00,,,0.00,154.000000,,2013-08-03 13:33:00,
2013-08-03 13:43:00,58.0,54.0,-100.00,NW,310,3.0,7.0,86,0.00,,,0.00,154.000000,,2013-08-03 13:43:00,
2013-08-03 13:52:00,58.0,54.0,-100.00,NW,310,3.0,7.0,86,0.00,,,0.00,154.000000,,2013-08-03 13:52:00,
2013-08-03 14:02:00,58.0,54.0,-100.00,NW,310,3.0,7.0,86,0.00,,,0.00,154.000000,,2013-08-03 14:02:00,
2013-08-03 14:33:00,65.0,55.0,-100.00,NNW,334,5.0,9.0,71,0.00,,,0.00,435.000000,,2013-08-03 14:33:00,
2013-08-03 14:43:00,65.0,55.0,-100.00,NNW,334,5.0,9.0,71,0.00,,,0.00,435.000000,,2013-08-03 14:43:00,
2013-08-03 14:52:00,65.0,55.0,-100.00,NNW,334,5.0,9.0,71,0.00,,,0.00,435.000000,,2013-08-03 14:52:00,
2013-08-03 15:02:00,65.0,55.0,-100.00,NNW,334,5.0,9.0,71,0.00,,,0.00,435.000000,,2013-08-03 15:02:00,
2013-08-03 15:23:00,67.0,54.0,-100.00,NW,314,5.0,11.0,63,0.00,,,0.00,576.000000,,2013-08-03 15:23:00,
2013-08-03 15:32:00,67.0,54.0,-100.00,NW,314,5.0,11.0,63,0.00,,,0.00,576.000000,,2013-08-03 15:32:00,
2013-08-03 15:43:00,67.0,54.0,-100.00,NW,314,5.0,11.0,63,0.00,,,0.00,576.000000,,2013-08-03 15:43:00,
2013-08-03 15:53:00,67.0,54.0,-100.00,NW,314,5.0,11.0,63,0.00,,,0.00,576.000000,,2013-08-03 15:53:00,
2013-08-03 16:02:00,67.0,54.0,-100.00,NW,314,5.0,11.0,63,0.00,,,0.00,576.000000,,2013-08-03 16:02:00,
2013-08-03 16:03:00,68.0,53.0,-100.00,NNW,334,4.0,13.0,59,0.00,,,0.00,435.000000,,2013-08-03 16:03:00,
2013-08-03 16:23:00,68.0,53.0,-100.00,NNW,334,4.0,13.0,59,0.00,,,0.00,435.000000,,2013-08-03 16:23:00,
2013-08-03 16:33:00,68.0,53.0,-100.00,NNW,334,4.0,13.0,59,0.00,,,0.00,435.000000,,2013-08-03 16:33:00,
2013-08-03 16:43:00,68.0,53.0,-100.00,NNW,334,4.0,13.0,59,0.00,,,0.00,435.000000,,2013-08-03 16:43:00,
2013-08-03 16:53:00,68.0,53.0,-100.00,NNW,334,4.0,13.0,59,0.00,,,0.00,435.000000,,2013-08-03 16:53:00,
2013-08-03 17:22:00,72.0,54.0,-100.00,NNW,342,5.0,10.0,54,0.00,,,0.00,783.000000,,2013-08-03 17:22:00,
2013-08-03 17:32:00,72.0,54.0,-100.00,NNW,342,5.0,10.0,54,0.00,,,0.00,783.000000,,2013-08-03 17:32:00,
2013-08-03 17:43:00,72.0,54.0,-100.00,NNW,342,5.0,10.0,54,0.00,,,0.00,783.000000,,2013-08-03 17:43:00,
2013-08-03 17:52:00,72.0,54.0,-100.00,NNW,342,5.0,10.0,54,0.00,,,0.00,783.000000,,2013-08-03 17:52:00,
2013-08-03 18:02:00,72.0,54.0,-100.00,NNW,342,5.0,10.0,54,0.00,,,0.00,783.000000,,2013-08-03 18:02:00,
2013-08-03 18:03:00,72.0,54.0,-100.00,NNW,340,4.0,9.0,54,0.00,,,0.00,481.000000,,2013-08-03 18:03:00,
2013-08-03 18:22:00,72.0,54.0,-100.00,NNW,340,4.0,9.0,54,0.00,,,0.00,481.000000,,2013-08-03 18:22:00,
2013-08-03 18:32:00,72.0,54.0,-100.00,NNW,340,4.0,9.0,54,0.00,,,0.00,481.000000,,2013-08-03 18:32:00,
2013-08-03 18:43:00,72.0,54.0,-100.00,NNW,340,4.0,9.0,54,0.00,,,0.00,481.000000,,2013-08-03 18:43:00,
2013-08-03 18:53:00,72.0,54.0,-100.00,NNW,340,4.0,9.0,54,0.00,,,0.00,481.000000,,2013-08-03 18:53:00,
2013-08-03 19:22:00,72.0,54.0,-100.00,NNE,20,7.0,11.0,54,0.00,,,0.00,498.000000,,2013-08-03 19:22:00,
2013-08-03 19:32:00,72.0,54.0,-100.00,NNE,20,7.0,11.0,54,0.00,,,0.00,498.000000,,2013-08-03 19:32:00,
2013-08-03 19:43:00,72.0,54.0,-100.00,NNE,20,7.0,11.0,54,0.00,,,0.00,498.000000,,2013-08-03 19:43:00,
2013-08-03 19:52:00,72.0,54.0,-100.00,NNE,20,7.0,11.0,54,0.00,,,0.00,498.000000,,2013-08-03 19:52:00,
2013-08-03 20:02:00,72.0,54.0,-100.00,NNE,20,7.0,11.0,54,0.00,,,0.00,498.000000,,2013-08-03 20:02:00,
2013-08-03 20:22:00,72.0,54.0,-100.00,NNE,22,7.0,14.0,53,0.00,,,0.00,702.000000,,2013-08-03 20:22:00,
2013-08-03 20:32:00,72.0,54.0,-100.00,NNE,22,7.0,14.0,53,0.00,,,0.00,702.000000,,2013-08-03 20:32:00,
2013-08-03 20:42:00,72.0,54.0,-100.00,NNE,22,7.0,14.0,53,0.00,,,0.00,702.000000,,2013-08-03 20:42:00,
2013-08-03 20:52:00,72.0,54.0,-100.00,NNE,22,7.0,14.0,53,0.00,,,0.00,702.000000,,2013-08-03 20:52:00,
2013-08-03 21:02:00,72.0,54.0,-100.00,NNE,22,7.0,14.0,53,0.00,,,0.00,702.000000,,2013-08-03 21:02:00,
2013-08-03 21:22:00,71.0,54.0,-100.00,NNE,27,9.0,15.0,55,0.00,,,0.00,496.000000,,2013-08-03 21:22:00,
2013-08-03 21:32:00,71.0,54.0,-100.00,NNE,27,9.0,15.0,55,0.00,,,0.00,496.000000,,2013-08-03 21:32:00,
2013-08-03 21:42:00,71.0,54.0,-100.00,NNE,27,9.0,15.0,55,0.00,,,0.00,496.000000,,2013-08-03 21:42:00,
2013-08-03 21:52:00,71.0,54.0,-100.00,NNE,27,9.0,15.0,55,0.00,,,0.00,496.000000,,2013-08-03 21:52:00,
2013-08-03 22:02:00,71.0,54.0,-100.00,NNE,27,9.0,15.0,55,0.00,,,0.00,496.000000,,2013-08-03 22:02:00,
2013-08-03 22:22:00,69.0,53.0,-100.00,NNE,17,8.0,17.0,57,0.00,,,0.00,594.000000,,2013-08-03 22:22:00,
2013-08-03 22:33:00,69.0,53.0,-100.00,NNE,17,8.0,17.0,57,0.00,,,0.00,594.000000,,2013-08-03 22:33:00,
2013-08-03 22:43:00,69.0,53.0,-100.00,NNE,17,8.0,17.0,57,0.00,,,0.00,594.000000,,2013-08-03 22:43:00,
2013-08-03 22:52:00,69.0,53.0,-100.00,NNE,17,8.0,17.0,57,0.00,,,0.00,594.000000,,2013-08-03 22:52:00,
2013-08-03 23:02:00,69.0,53.0,-100.00,NNE,17,8.0,17.0,57,0.00,,,0.00,594.000000,,2013-08-03 23:02:00,
2013-08-03 23:03:00,68.0,53.0,-100.00,NNE,21,7.0,16.0,59,0.00,,,0.00,320.000000,,2013-08-03 23:03:00,
2013-08-03 23:22:00,68.0,53.0,-100.00,NNE,21,7.0,16.0,59,0.00,,,0.00,320.000000,,2013-08-03 23:22:00,
2013-08-03 23:32:00,68.0,53.0,-100.00,NNE,21,7.0,16.0,59,0.00,,,0.00,320.000000,,2013-08-03 23:32:00,
2013-08-03 23:43:00,68.0,53.0,-100.00,NNE,21,7.0,16.0,59,0.00,,,0.00,320.000000,,2013-08-03 23:43:00,
2013-08-03 23:52:00,68.0,53.0,-100.00,NNE,21,7.0,16.0,59,0.00,,,0.00,320.000000,,2013-08-03 23:52:00,